Hourly Weather Juraszka

Today, 17 April, Saturday

Time Temperature Precipitation Wind Pressure Humidity
00:00 -1°C° 0.1 mm 1 mps 684 mmHg 98%
01:00 0°C° 0 mm 1 mps 684 mmHg 98%
02:00 0°C° 0.2 mm 1 mps 684 mmHg 98%
03:00 0°C° 0.2 mm 1 mps 684 mmHg 98%
04:00 0°C° 0.2 mm 1 mps 684 mmHg 99%
05:00 0°C° 0.2 mm 1 mps 684 mmHg 99%
06:00 0°C° 0.2 mm 1 mps 684 mmHg 98%
07:00 0°C° 0.2 mm 1 mps 684 mmHg 98%
08:00 +1°C° 0.1 mm 1 mps 684 mmHg 98%
09:00 +1°C° 0.1 mm 1 mps 684 mmHg 97%
10:00 +1°C° 0.1 mm 1 mps 685 mmHg 97%
11:00 +1°C° 0 mm 1 mps 685 mmHg 95%
12:00 +2°C° 0 mm 1 mps 685 mmHg 94%
13:00 +2°C° 0 mm 1 mps 684 mmHg 92%
14:00 +2°C° 0 mm 1 mps 684 mmHg 93%
15:00 +2°C° 0 mm 1 mps 684 mmHg 93%
16:00 +2°C° 0 mm 1 mps 684 mmHg 94%
17:00 +2°C° 0 mm 1 mps 684 mmHg 95%
18:00 +1°C° 0 mm 1 mps 684 mmHg 97%
19:00 +1°C° 0 mm 1 mps 684 mmHg 98%
20:00 +1°C° 0 mm 1 mps 684 mmHg 98%
21:00 +1°C° 0 mm 1 mps 684 mmHg 98%
22:00 0°C° 0 mm 0 mps 685 mmHg 98%
23:00 +1°C° 0 mm 1 mps 684 mmHg 98%

Tomorrow, 18 April, Sunday

Time Temperature Precipitation Wind Pressure Humidity
00:00 +1°C° 0 mm 1 mps 684 mmHg 98%
01:00 +1°C° 0 mm 1 mps 684 mmHg 98%
02:00 +1°C° 0 mm 1 mps 684 mmHg 98%
03:00 +1°C° 0 mm 1 mps 684 mmHg 98%
04:00 +1°C° 0 mm 1 mps 684 mmHg 98%
05:00 +1°C° 0 mm 1 mps 684 mmHg 98%
06:00 +1°C° 0 mm 1 mps 684 mmHg 97%
07:00 +1°C° 0 mm 1 mps 684 mmHg 97%
08:00 +2°C° 0 mm 1 mps 684 mmHg 96%
09:00 +2°C° 0 mm 1 mps 684 mmHg 95%
10:00 +2°C° 0 mm 1 mps 684 mmHg 94%
11:00 +3°C° 0 mm 1 mps 684 mmHg 92%
12:00 +3°C° 0 mm 1 mps 684 mmHg 89%
13:00 +4°C° 0 mm 1 mps 684 mmHg 87%
14:00 +4°C° 0 mm 1 mps 684 mmHg 85%
15:00 +4°C° 0 mm 1 mps 684 mmHg 84%
16:00 +5°C° 0 mm 1 mps 684 mmHg 82%
17:00 +4°C° 0 mm 1 mps 684 mmHg 86%
18:00 +3°C° 0 mm 1 mps 684 mmHg 90%
19:00 +2°C° 0 mm 1 mps 684 mmHg 94%
20:00 +2°C° 0 mm 1 mps 684 mmHg 94%
21:00 +2°C° 0 mm 1 mps 684 mmHg 94%
22:00 +2°C° 0 mm 1 mps 684 mmHg 95%
23:00 +2°C° 0 mm 1 mps 684 mmHg 94%

Day after tomorrow, 19 April, Monday

Time Temperature Precipitation Wind Pressure Humidity
00:00 +2°C° 0 mm 1 mps 683 mmHg 94%
01:00 +2°C° 0 mm 1 mps 683 mmHg 94%
02:00 +2°C° 0 mm 1 mps 683 mmHg 94%
03:00 +2°C° 0 mm 1 mps 683 mmHg 95%
04:00 +2°C° 0 mm 1 mps 683 mmHg 95%
05:00 +2°C° 0 mm 1 mps 683 mmHg 94%
06:00 +3°C° 0 mm 1 mps 683 mmHg 93%
07:00 +3°C° 0 mm 1 mps 683 mmHg 92%
08:00 +4°C° 0 mm 1 mps 683 mmHg 89%
09:00 +5°C° 0 mm 1 mps 683 mmHg 87%
10:00 +5°C° 0 mm 2 mps 683 mmHg 85%
11:00 +5°C° 0.1 mm 2 mps 682 mmHg 84%
12:00 +5°C° 0.1 mm 2 mps 682 mmHg 83%
13:00 +6°C° 0.1 mm 2 mps 682 mmHg 82%
14:00 +5°C° 0.3 mm 2 mps 682 mmHg 84%
15:00 +5°C° 0.3 mm 2 mps 682 mmHg 86%
16:00 +5°C° 0.3 mm 2 mps 682 mmHg 88%
17:00 +4°C° 0.1 mm 2 mps 682 mmHg 90%
18:00 +5°C° 0.1 mm 1 mps 682 mmHg 92%
19:00 +4°C° 0.1 mm 1 mps 681 mmHg 94%
20:00 +4°C° 0 mm 1 mps 681 mmHg 95%
21:00 +3°C° 0 mm 1 mps 681 mmHg 96%
22:00 +3°C° 0 mm 1 mps 681 mmHg 97%
23:00 +3°C° 0 mm 1 mps 681 mmHg 97%

20 April, Tuesday

Time Temperature Precipitation Wind Pressure Humidity
00:00 +3°C° 0 mm 1 mps 681 mmHg 96%
01:00 +3°C° 0 mm 1 mps 681 mmHg 96%
02:00 +3°C° 0 mm 1 mps 681 mmHg 96%
03:00 +2°C° 0 mm 1 mps 680 mmHg 95%
04:00 +2°C° 0 mm 1 mps 680 mmHg 95%
05:00 +3°C° 0 mm 1 mps 681 mmHg 93%
06:00 +3°C° 0 mm 1 mps 681 mmHg 90%
07:00 +3°C° 0 mm 1 mps 681 mmHg 88%
08:00 +3°C° 0.1 mm 2 mps 681 mmHg 82%
09:00 +4°C° 0.1 mm 2 mps 681 mmHg 77%
10:00 +5°C° 0.1 mm 2 mps 681 mmHg 72%
11:00 +5°C° 0.2 mm 2 mps 681 mmHg 70%
12:00 +6°C° 0.2 mm 2 mps 681 mmHg 67%
13:00 +6°C° 0.2 mm 2 mps 681 mmHg 65%
14:00 +6°C° 0.2 mm 2 mps 681 mmHg 66%
15:00 +6°C° 0.2 mm 2 mps 681 mmHg 66%
16:00 +6°C° 0.2 mm 2 mps 681 mmHg 67%
17:00 +6°C° 0.1 mm 1 mps 681 mmHg 73%
18:00 +5°C° 0.1 mm 1 mps 681 mmHg 79%
19:00 +4°C° 0.1 mm 1 mps 681 mmHg 84%
20:00 +3°C° 0 mm 1 mps 681 mmHg 86%
21:00 +2°C° 0 mm 1 mps 681 mmHg 88%
22:00 +2°C° 0 mm 1 mps 681 mmHg 90%
23:00 +1°C° 0 mm 1 mps 681 mmHg 90%

21 April, Wednesday

Time Temperature Precipitation Wind Pressure Humidity
00:00 +1°C° 0 mm 1 mps 681 mmHg 91%
01:00 +1°C° 0 mm 1 mps 681 mmHg 92%
02:00 +1°C° 0 mm 1 mps 681 mmHg 92%
03:00 +1°C° 0 mm 1 mps 682 mmHg 92%
04:00 +1°C° 0 mm 1 mps 682 mmHg 92%
05:00 +2°C° 0 mm 1 mps 682 mmHg 89%
06:00 +3°C° 0 mm 1 mps 682 mmHg 86%
07:00 +5°C° 0 mm 1 mps 682 mmHg 82%
08:00 +6°C° 0.2 mm 1 mps 683 mmHg 77%
09:00 +7°C° 0.2 mm 1 mps 683 mmHg 72%
10:00 +7°C° 0.2 mm 2 mps 683 mmHg 67%
11:00 +8°C° 0.3 mm 2 mps 683 mmHg 65%
12:00 +8°C° 0.3 mm 2 mps 683 mmHg 63%
13:00 +8°C° 0.3 mm 2 mps 683 mmHg 61%
14:00 +8°C° 0.2 mm 2 mps 683 mmHg 62%
15:00 +8°C° 0.2 mm 3 mps 683 mmHg 62%
16:00 +8°C° 0.2 mm 3 mps 683 mmHg 62%
17:00 +7°C° 0.2 mm 2 mps 684 mmHg 71%
18:00 +6°C° 0.2 mm 1 mps 684 mmHg 79%
19:00 +5°C° 0.2 mm 1 mps 684 mmHg 87%
20:00 +4°C° 0 mm 1 mps 684 mmHg 88%
21:00 +4°C° 0 mm 1 mps 684 mmHg 90%
22:00 +4°C° 0 mm 1 mps 685 mmHg 91%
23:00 +4°C° 0 mm 1 mps 685 mmHg 91%

22 April, Thursday

Time Temperature Precipitation Wind Pressure Humidity
00:00 +4°C° 0 mm 1 mps 685 mmHg 90%
01:00 +4°C° 0 mm 1 mps 685 mmHg 90%
02:00 +4°C° 0 mm 1 mps 685 mmHg 90%
03:00 +4°C° 0 mm 1 mps 685 mmHg 90%
04:00 +3°C° 0 mm 1 mps 685 mmHg 90%
05:00 +4°C° 0 mm 1 mps 685 mmHg 87%
06:00 +5°C° 0 mm 1 mps 685 mmHg 84%
07:00 +6°C° 0 mm 1 mps 685 mmHg 81%
08:00 +5°C° 0.2 mm 2 mps 686 mmHg 77%
09:00 +5°C° 0.2 mm 3 mps 686 mmHg 72%
10:00 +6°C° 0.2 mm 4 mps 686 mmHg 68%
11:00 +5°C° 0.5 mm 3 mps 686 mmHg 72%
12:00 +5°C° 0.5 mm 3 mps 686 mmHg 76%
13:00 +4°C° 0.5 mm 3 mps 686 mmHg 79%
14:00 +4°C° 0.1 mm 3 mps 686 mmHg 77%
15:00 +4°C° 0.1 mm 3 mps 686 mmHg 74%
16:00 +3°C° 0.1 mm 3 mps 686 mmHg 72%
17:00 +3°C° 0.5 mm 2 mps 687 mmHg 80%
18:00 +2°C° 0.5 mm 2 mps 687 mmHg 87%
19:00 +1°C° 0.5 mm 1 mps 687 mmHg 95%
20:00 +1°C° 0.1 mm 1 mps 688 mmHg 94%
21:00 0°C° 0.1 mm 1 mps 688 mmHg 94%
22:00 -1°C° 0.1 mm 1 mps 688 mmHg 94%
23:00 -1°C° 0 mm 1 mps 688 mmHg 93%
Show more

We Need Your Consent

Meteoprog and our Service Providers may store and access personal data such as cookies, device identifiers or other similar technologies on your device and process such data to personalise content and ads, as well as provide social media features and to analyse the traffic.

  • Store and/or access information on your device

    Cookies, device identifiers or other information can be stored or accessed on your device for the purposes indicated above.

  • Personalised ads and content, ad and content measurement, audience insights, and products development

    Ads and content can be personalised based on a profile. More data can be added to better personalise ads and content. Ad and content performance can be measured. Insights about the audience who saw the ads and content can be derived. Such data can be used to develop or improve user’s experience, systems and software.

By clicking ‘I Agree’ you will allow the use of indicated cookies, device identifiers, web beacons or other similar technologies. Your settings can be changed in the browser on your device.

For certain purposes, legitimate interests may be relied on, rather than consent. You can read more about this in our Privacy and Cookie Policy.